Location: Six Mile Lake
(44.9000°N, 79.7170°W)
Time: 17:57:48
(UTC-04:00)

ESTCUBE 1 - Pass Details

Date: 03 July 2022
Orbit: 646 x 657 km, 97.9° (Epoch: 07 August)

Event Time Altitude Azimuth Distance (km) Brightness Sun altitude
Exits shadow 23:23:08 31° 164° (SSE) 1,128 ? -16.9°
Maximum altitude 23:25:15 88° 79° (E) 654 ? -17.1°
Drops below altitude 10° 23:29:45 10° 348° (NNW) 2,060 ? -17.4°
Sets 23:31:59 0° 348° (NNW) 2,977 ? -17.6°
